Location: Asheville, NC
(35.6000°N, 82.5500°W)
Time: 23:06:05

KKS-1 - Pass Details

Date: 13 March 2018
Orbit: 638 x 650 km, 98.4° (Epoch: 20 March)

Event Time Altitude Azimuth Distance (km) Brightness Sun altitude
Rises 05:58:53 0° 154° (SSE) 2,947 ? -22.0°
Reaches altitude 10° 06:01:08 10° 149° (SSE) 2,042 ? -21.6°
Maximum altitude 06:05:26 51° 73° (ENE) 819 ? -20.7°
Drops below altitude 10° 06:09:47 10° 359° (N) 2,057 ? -19.9°
Sets 06:12:02 0° 354° (N) 2,971 ? -19.4°
